Фасова

Украина / Киевская область     50°22′31″N   29°48′54″E
темп.,
°C
ветер,
м/с
пор.,
м/с
влажн.,
%
обл.,
%
осадки,
мм/ч
давл.,
гПа
погр.,
м
14 мая, пт
пт1400:00+11ююв51378100 0.0 1009618
03:00+10юв41084100 0.0 1008316
06:00+8юв4109420 0.0 1008229
09:00+14ююв57695 0.0 1008522
12:00+18ююв675186 0.0 10071207
15:00+18ю565599 0.0 10071078
18:00+18ююз456322 0.1 10061102
21:00+12юз338772 0.2 100748
15 мая, сб
сб1500:00+10ююз359193 0.0 100781
03:00+11юз389569 0.0 1007253
06:00+11юз4797100 0.4 1008289
09:00+14юз4682100 0.6 1010523
12:00+17юз575955 0.3 10101554
15:00+17юз7864100 0.6 10101362
18:00+16юз687348 0.3 1011900
21:00+11зюз34915 0.3 101260
16 мая, вс
вс1600:00+10юз33945 0.0 101249
03:00+9юз33955 0.0 101343
06:00+9ююз22945 0.0 101318
09:00+15ю2373100 0.0 1013355
12:00+20ююв345889 0.0 1012924
15:00+22ююв455275 0.1 10111861
18:00+20ююв4767100 0.3 1010455
21:00+17вюв41076100 0.4 1009211
17 мая, пн
пн1700:00+16вюв3874100 0.0 1008170
03:00+13юв3381100 0.0 100843
06:00+14ююв2491100 0.6 100889
09:00+15в3592100 1.9 1008147
12:00+16всв3385100 1.5 1007324
15:00+19ююв117096 2.6 1006728
18:00+17зсз458196 1.9 1006559
21:00+14зсз2290100 2.1 100720
18 мая, вт
вт1800:00+12з369279 0.0 100891
03:00+10зсз33924 0.0 100938
06:00+10зсз3593100 0.0 1009104
09:00+14сз2477100 0.0 1010312
12:00+19ссв11606 0.0 1010884
15:00+18з3266100 1.5 1010832
18:00+18ссв126611 0.3 1009752
21:00+14всв3482100 0.4 100864